Powrót do katalogu

STARLINK-11152

AktywnyŁącznośćVLEO
NORAD 60194·PAYLOAD·🇺🇸 United States

Wystrzelony Jul 3, 2024 z Cape Canaveral Space Force Station

Loading…

Następne Przeloty (najbliższe 24 godziny)

TLE

ŚwieżeSource: CelesTrak SupGP

Epoka: Sep 15, 2026, 03:10 UTC

1 60194C 24124M   26258.13243056  .00049655  00000+0  40888-3 0  2587
2 60194  53.1569 307.3970 0001258  81.9750  68.1496 15.69692961    15

Śledź STARLINK-11152 w czasie rzeczywistym z AllMySat

Download on the App Store